QPF
0.03 0.03 0.04 0.05 0.07 0.07 0.09 0.10 0.11 0.10 0.08 0.05 0.02 0.00 0.00 0.00 0.00 0.00 0.00 0.00 0.00 0.00 0.00 0.00 0.00 0.00 0.00 0.00 0.00 0.00 0.00 0.00 0.00 0.00 0.00 0.00 0.00 0.01
0.02 0.02 0.03 0.04 0.06 0.08 0.10 0.12 0.12 0.11 0.11 0.08 0.04 0.01 0.00 0.00 0.00 0.00 0.00 0.00 0.00 0.00 0.00 0.00 0.00 0.00 0.00 0.00 0.00 0.00 0.00 0.00 0.00 0.00 0.00 0.00 0.00 0.00
0.01 0.02 0.03 0.04 0.05 0.06 0.07 0.09 0.09 0.11 0.10 0.11 0.07 0.03 0.01 0.01 0.01 0.00 0.00 0.00 0.00 0.00 0.00 0.00 0.00 0.00 0.00 0.00 0.00 0.00 0.00 0.00 0.00 0.00 0.00 0.00 0.00 0.00
0.01 0.01 0.02 0.03 0.04 0.05 0.06 0.07 0.08 0.10 0.11 0.12 0.11 0.07 0.05 0.04 0.03 0.02 0.01 0.01 0.00 0.00 0.00 0.00 0.00 0.00 0.00 0.00 0.00 0.00 0.00 0.00 0.00 0.00 0.00 0.00 0.00 0.00
0.00 0.01 0.01 0.02 0.03 0.05 0.07 0.08 0.08 0.09 0.13 0.16 0.17 0.14 0.09 0.07 0.05 0.04 0.02 0.01 0.01 0.01 0.00 0.00 0.00 0.00 0.00 0.00 0.00 0.00 0.00 0.00 0.00 0.00 0.00 0.00 0.00 0.00
0.00 0.00 0.01 0.01 0.03 0.05 0.07 0.09 0.11 0.11 0.13 0.17 0.20 0.17 0.13 0.10 0.07 0.06 0.05 0.03 0.02 0.01 0.01 0.00 0.00 0.00 0.00 0.00 0.00 0.00 0.00 0.00 0.00 0.00 0.00 0.00 0.00 0.00
0.00 0.00 0.00 0.01 0.02 0.04 0.07 0.09 0.12 0.15 0.18 0.21 0.25 0.26 0.22 0.18 0.14 0.11 0.09 0.07 0.04 0.02 0.01 0.01 0.00 0.00 0.00 0.00 0.00 0.00 0.00 0.00 0.00 0.00 0.00 0.00 0.00 0.00
0.01 0.01 0.00 0.01 0.01 0.01 0.01 0.02 0.05 0.11 0.18 0.20 0.22 0.23 0.24 0.24 0.22 0.19 0.14 0.09 0.06 0.04 0.02 0.01 0.01 0.00 0.00 0.00 0.00 0.00 0.00 0.00 0.00 0.00 0.00 0.00 0.00 0.00
0.02 0.01 0.00 0.00 0.01 0.01 0.01 0.00 0.01 0.02 0.05 0.09 0.14 0.17 0.18 0.19 0.19 0.18 0.16 0.14 0.11 0.07 0.05 0.03 0.01 0.01 0.00 0.00 0.00 0.00 0.00 0.00 0.00 0.00 0.00 0.00 0.00 0.00
0.02 0.01 0.01 0.01 0.01 0.01 0.01 0.01 0.01 0.01 0.01 0.03 0.05 0.07 0.09 0.12 0.13 0.14 0.16 0.15 0.12 0.09 0.07 0.05 0.03 0.02 0.01 0.00 0.00 0.00 0.00 0.00 0.00 0.00 0.00 0.00 0.00 0.00
0.04 0.02 0.02 0.01 0.02 0.01 0.00 0.01 0.02 0.01 0.00 0.01 0.01 0.01 0.01 0.03 0.06 0.10 0.12 0.13 0.13 0.11 0.10 0.07 0.05 0.04 0.02 0.01 0.00 0.00 0.00 0.00 0.00 0.00 0.00 0.00 0.00 0.00
0.06 0.04 0.06 0.06 0.06 0.03 0.01 0.03 0.04 0.03 0.00 0.00 0.01 0.01 0.01 0.01 0.02 0.05 0.09 0.11 0.11 0.13 0.12 0.09 0.08 0.07 0.05 0.03 0.02 0.01 0.01 0.00 0.00 0.00 0.00 0.00 0.00 0.00
0.06 0.06 0.07 0.10 0.08 0.05 0.03 0.03 0.04 0.02 0.01 0.02 0.02 0.02 0.02 0.02 0.03 0.04 0.06 0.08 0.10 0.12 0.12 0.09 0.08 0.07 0.06 0.05 0.03 0.02 0.02 0.01 0.01 0.00 0.00 0.00 0.00 0.00
0.07 0.07 0.07 0.09 0.07 0.06 0.03 0.03 0.03 0.02 0.01 0.02 0.02 0.02 0.02 0.02 0.02 0.02 0.03 0.04 0.05 0.07 0.08 0.07 0.07 0.06 0.06 0.06 0.05 0.04 0.03 0.02 0.01 0.01 0.01 0.01 0.01 0.01
0.04 0.05 0.05 0.05 0.05 0.05 0.04 0.04 0.02 0.01 0.01 0.03 0.03 0.01 0.01 0.01 0.01 0.01 0.01 0.01 0.02 0.02 0.03 0.03 0.04 0.06 0.07 0.06 0.06 0.06 0.06 0.05 0.03 0.03 0.02 0.02 0.02 0.01
0.03 0.03 0.04 0.04 0.05 0.04 0.04 0.03 0.01 0.01 0.02 0.03 0.02 0.01 0.01 0.01 0.01 0.01 0.01 0.01 0.02 0.03 0.02 0.02 0.03 0.05 0.06 0.07 0.07 0.07 0.06 0.05 0.05 0.05 0.04 0.04 0.03 0.03
0.03 0.04 0.04 0.04 0.03 0.03 0.02 0.02 0.02 0.02 0.02 0.02 0.02 0.01 0.01 0.01 0.02 0.02 0.02 0.02 0.02 0.02 0.02 0.01 0.02 0.03 0.04 0.05 0.06 0.07 0.08 0.07 0.06 0.06 0.05 0.05 0.05 0.05
0.03 0.03 0.03 0.02 0.02 0.02 0.02 0.02 0.02 0.02 0.02 0.02 0.02 0.01 0.01 0.01 0.01 0.01 0.02 0.02 0.02 0.02 0.02 0.02 0.02 0.02 0.03 0.03 0.03 0.05 0.07 0.08 0.08 0.07 0.06 0.05 0.05 0.06
0.02 0.01 0.01 0.01 0.02 0.02 0.02 0.02 0.01 0.01 0.02 0.02 0.03 0.02 0.02 0.02 0.02 0.02 0.02 0.02 0.02 0.02 0.02 0.02 0.02 0.02 0.03 0.04 0.05 0.03 0.04 0.06 0.06 0.05 0.05 0.05 0.05 0.05
0.01 0.01 0.01 0.01 0.02 0.01 0.01 0.01 0.01 0.02 0.02 0.02 0.02 0.03 0.03 0.03 0.03 0.02 0.01 0.01 0.02 0.01 0.02 0.02 0.02 0.02 0.02 0.03 0.04 0.03 0.02 0.03 0.03 0.03 0.04 0.04 0.03 0.03
0.01 0.01 0.01 0.01 0.02 0.01 0.01 0.01 0.01 0.01 0.02 0.02 0.02 0.02 0.02 0.02 0.02 0.01 0.01 0.01 0.01 0.01 0.02 0.02 0.02 0.01 0.01 0.02 0.02 0.03 0.04 0.02 0.02 0.02 0.02 0.02 0.02 0.02
0.00 0.00 0.00 0.01 0.02 0.02 0.01 0.01 0.00 0.00 0.00 0.00 0.01 0.01 0.01 0.01 0.01 0.01 0.01 0.01 0.01 0.02 0.01 0.01 0.01 0.01 0.01 0.02 0.03 0.02 0.02 0.02 0.02 0.02 0.02 0.02 0.02 0.03
0.00 0.00 0.00 0.00 0.00 0.00 0.00 0.00 0.00 0.00 0.00 0.00 0.00 0.00 0.00 0.00 0.01 0.01 0.01 0.01 0.01 0.01 0.01 0.01 0.01 0.01 0.01 0.01 0.02 0.02 0.02 0.02 0.02 0.02 0.02 0.04 0.04 0.04
MSLP
1014.15 1014.32 1014.51 1014.72 1014.93 1015.14 1015.32 1015.46 1015.54 1015.56 1015.52 1015.45 1015.36 1015.31 1015.32 1015.42 1015.61 1015.89 1016.23 1016.60 1016.96 1017.28 1017.53 1017.71 1017.83 1017.89 1017.92 1017.93 1017.94 1017.95 1017.95 1017.92 1017.84 1017.71 1017.52 1017.27 1016.99 1016.70
1014.04 1014.13 1014.24 1014.38 1014.53 1014.71 1014.88 1015.03 1015.14 1015.20 1015.21 1015.18 1015.13 1015.10 1015.11 1015.19 1015.35 1015.59 1015.90 1016.25 1016.61 1016.95 1017.23 1017.46 1017.63 1017.74 1017.81 1017.86 1017.90 1017.93 1017.96 1017.97 1017.95 1017.87 1017.75 1017.56 1017.33 1017.07
1013.92 1013.94 1013.98 1014.05 1014.15 1014.29 1014.45 1014.61 1014.75 1014.86 1014.92 1014.95 1014.94 1014.94 1014.95 1015.02 1015.15 1015.36 1015.63 1015.94 1016.27 1016.60 1016.89 1017.13 1017.32 1017.46 1017.56 1017.64 1017.71 1017.77 1017.84 1017.89 1017.93 1017.93 1017.88 1017.77 1017.62 1017.42
1013.76 1013.73 1013.72 1013.74 1013.80 1013.92 1014.07 1014.25 1014.42 1014.57 1014.69 1014.77 1014.82 1014.84 1014.87 1014.94 1015.04 1015.20 1015.42 1015.68 1015.97 1016.26 1016.53 1016.76 1016.95 1017.09 1017.20 1017.30 1017.38 1017.47 1017.57 1017.68 1017.77 1017.84 1017.87 1017.86 1017.79 1017.66
1013.55 1013.50 1013.46 1013.46 1013.51 1013.62 1013.77 1013.96 1014.16 1014.35 1014.52 1014.65 1014.74 1014.80 1014.85 1014.90 1014.98 1015.11 1015.27 1015.47 1015.70 1015.94 1016.16 1016.36 1016.53 1016.66 1016.77 1016.87 1016.96 1017.07 1017.19 1017.33 1017.48 1017.61 1017.72 1017.79 1017.80 1017.76
1013.30 1013.26 1013.22 1013.22 1013.27 1013.38 1013.54 1013.74 1013.97 1014.19 1014.39 1014.55 1014.67 1014.76 1014.82 1014.88 1014.94 1015.03 1015.15 1015.29 1015.46 1015.64 1015.81 1015.97 1016.10 1016.21 1016.31 1016.39 1016.49 1016.60 1016.74 1016.90 1017.08 1017.26 1017.42 1017.56 1017.65 1017.69
1013.05 1013.03 1013.01 1013.03 1013.09 1013.21 1013.37 1013.58 1013.81 1014.03 1014.25 1014.43 1014.57 1014.68 1014.75 1014.81 1014.87 1014.93 1015.02 1015.12 1015.24 1015.37 1015.49 1015.60 1015.70 1015.79 1015.86 1015.93 1016.02 1016.13 1016.27 1016.44 1016.63 1016.83 1017.03 1017.20 1017.35 1017.45
1012.82 1012.83 1012.85 1012.89 1012.97 1013.09 1013.25 1013.44 1013.65 1013.87 1014.08 1014.26 1014.40 1014.51 1014.60 1014.66 1014.72 1014.78 1014.85 1014.93 1015.03 1015.12 1015.21 1015.29 1015.36 1015.42 1015.47 1015.53 1015.60 1015.70 1015.83 1015.99 1016.17 1016.37 1016.57 1016.77 1016.93 1017.07
1012.66 1012.70 1012.75 1012.81 1012.89 1013.01 1013.15 1013.32 1013.50 1013.68 1013.86 1014.01 1014.15 1014.26 1014.35 1014.43 1014.50 1014.57 1014.65 1014.73 1014.82 1014.90 1014.98 1015.04 1015.09 1015.13 1015.16 1015.20 1015.25 1015.33 1015.44 1015.58 1015.74 1015.92 1016.11 1016.29 1016.46 1016.61
1012.59 1012.65 1012.71 1012.79 1012.87 1012.97 1013.09 1013.22 1013.35 1013.48 1013.61 1013.73 1013.84 1013.94 1014.03 1014.13 1014.22 1014.32 1014.43 1014.53 1014.63 1014.72 1014.80 1014.86 1014.89 1014.92 1014.93 1014.95 1014.98 1015.03 1015.11 1015.22 1015.35 1015.50 1015.66 1015.81 1015.96 1016.09
1012.63 1012.69 1012.76 1012.83 1012.91 1012.99 1013.07 1013.15 1013.23 1013.30 1013.38 1013.46 1013.53 1013.62 1013.72 1013.83 1013.95 1014.08 1014.22 1014.35 1014.48 1014.59 1014.67 1014.73 1014.76 1014.77 1014.77 1014.76 1014.76 1014.78 1014.83 1014.90 1014.99 1015.11 1015.23 1015.35 1015.47 1015.58
1012.76 1012.81 1012.87 1012.93 1012.99 1013.05 1013.10 1013.14 1013.16 1013.19 1013.22 1013.25 1013.30 1013.37 1013.46 1013.58 1013.72 1013.89 1014.06 1014.23 1014.38 1014.51 1014.60 1014.66 1014.68 1014.67 1014.64 1014.60 1014.57 1014.55 1014.56 1014.59 1014.65 1014.73 1014.82 1014.91 1014.99 1015.08
1012.96 1012.99 1013.03 1013.08 1013.13 1013.17 1013.20 1013.20 1013.20 1013.18 1013.17 1013.17 1013.19 1013.24 1013.32 1013.44 1013.60 1013.78 1013.97 1014.16 1014.33 1014.47 1014.57 1014.62 1014.62 1014.58 1014.52 1014.44 1014.37 1014.31 1014.28 1014.28 1014.30 1014.35 1014.41 1014.48 1014.55 1014.61
1013.23 1013.22 1013.25 1013.29 1013.33 1013.36 1013.37 1013.37 1013.34 1013.31 1013.27 1013.24 1013.23 1013.26 1013.33 1013.44 1013.59 1013.77 1013.97 1014.16 1014.33 1014.47 1014.55 1014.58 1014.56 1014.49 1014.39 1014.27 1014.16 1014.06 1013.99 1013.95 1013.94 1013.96 1014.01 1014.06 1014.11 1014.17
1013.54 1013.51 1013.51 1013.54 1013.58 1013.61 1013.63 1013.63 1013.60 1013.55 1013.50 1013.45 1013.43 1013.43 1013.47 1013.56 1013.69 1013.85 1014.03 1014.21 1014.36 1014.48 1014.54 1014.55 1014.49 1014.39 1014.25 1014.09 1013.93 1013.79 1013.68 1013.61 1013.58 1013.58 1013.61 1013.66 1013.71 1013.76
1013.91 1013.85 1013.84 1013.86 1013.90 1013.94 1013.97 1013.98 1013.96 1013.92 1013.86 1013.80 1013.75 1013.72 1013.73 1013.78 1013.88 1014.00 1014.14 1014.28 1014.41 1014.49 1014.52 1014.50 1014.41 1014.27 1014.10 1013.90 1013.71 1013.53 1013.39 1013.29 1013.24 1013.23 1013.25 1013.29 1013.35 1013.40
1014.36 1014.27 1014.24 1014.26 1014.30 1014.35 1014.39 1014.41 1014.40 1014.37 1014.31 1014.23 1014.15 1014.09 1014.06 1014.07 1014.11 1014.18 1014.27 1014.37 1014.45 1014.50 1014.50 1014.45 1014.34 1014.17 1013.97 1013.75 1013.53 1013.33 1013.16 1013.04 1012.97 1012.94 1012.95 1012.99 1013.04 1013.10
1014.90 1014.80 1014.76 1014.77 1014.81 1014.86 1014.90 1014.93 1014.92 1014.88 1014.81 1014.72 1014.61 1014.51 1014.43 1014.38 1014.36 1014.38 1014.41 1014.46 1014.50 1014.51 1014.48 1014.41 1014.28 1014.11 1013.90 1013.67 1013.44 1013.23 1013.04 1012.91 1012.81 1012.77 1012.76 1012.79 1012.83 1012.87
1015.56 1015.46 1015.40 1015.40 1015.43 1015.46 1015.50 1015.51 1015.50 1015.44 1015.35 1015.23 1015.09 1014.95 1014.82 1014.71 1014.64 1014.59 1014.57 1014.57 1014.56 1014.55 1014.50 1014.41 1014.29 1014.12 1013.91 1013.69 1013.46 1013.24 1013.05 1012.90 1012.79 1012.73 1012.70 1012.70 1012.72 1012.74
1016.32 1016.22 1016.16 1016.14 1016.14 1016.15 1016.16 1016.15 1016.11 1016.03 1015.91 1015.76 1015.58 1015.40 1015.22 1015.07 1014.94 1014.83 1014.76 1014.71 1014.67 1014.63 1014.57 1014.48 1014.36 1014.20 1014.02 1013.81 1013.59 1013.38 1013.19 1013.03 1012.91 1012.83 1012.77 1012.74 1012.73 1012.72
1017.16 1017.07 1017.00 1016.95 1016.92 1016.90 1016.87 1016.82 1016.74 1016.62 1016.47 1016.28 1016.08 1015.86 1015.64 1015.44 1015.27 1015.12 1015.01 1014.92 1014.85 1014.78 1014.71 1014.63 1014.51 1014.37 1014.21 1014.02 1013.83 1013.63 1013.45 1013.29 1013.15 1013.04 1012.96 1012.90 1012.85 1012.80
1018.01 1017.92 1017.85 1017.78 1017.71 1017.64 1017.56 1017.47 1017.35 1017.19 1017.01 1016.80 1016.57 1016.32 1016.08 1015.85 1015.64 1015.46 1015.31 1015.19 1015.10 1015.01 1014.93 1014.84 1014.74 1014.62 1014.47 1014.31 1014.13 1013.95 1013.78 1013.62 1013.48 1013.35 1013.25 1013.16 1013.08 1012.99
1018.78 1018.71 1018.63 1018.53 1018.43 1018.32 1018.20 1018.06 1017.90 1017.72 1017.51 1017.28 1017.03 1016.78 1016.52 1016.28 1016.05 1015.85 1015.68 1015.53 1015.41 1015.31 1015.22 1015.12 1015.02 1014.91 1014.78 1014.63 1014.48 1014.32 1014.16 1014.00 1013.86 1013.73 1013.60 1013.49 1013.38 1013.27
Thickness
5696 5695 5693 5693 5692 5691 5690 5686 5680 5676 5678 5684 5687 5691 5690 5690 5689 5687 5689 5685 5684 5683 5683 5684 5686 5687 5689 5691 5693 5695 5697 5699 5701 5704 5707 5710 5713 5715
5690 5690 5689 5689 5687 5687 5685 5683 5680 5676 5674 5680 5680 5685 5686 5686 5685 5686 5688 5684 5681 5680 5680 5681 5682 5683 5684 5686 5688 5689 5691 5693 5695 5698 5700 5703 5706 5709
5686 5685 5684 5684 5682 5681 5681 5679 5677 5674 5670 5674 5675 5678 5679 5681 5682 5682 5684 5682 5681 5679 5678 5678 5678 5679 5680 5682 5683 5684 5686 5688 5690 5692 5694 5697 5700 5702
5680 5680 5680 5680 5678 5678 5676 5675 5674 5672 5669 5669 5670 5671 5673 5676 5679 5679 5680 5680 5681 5678 5677 5676 5676 5676 5677 5678 5679 5680 5681 5683 5685 5686 5688 5691 5693 5695
5677 5676 5676 5675 5674 5674 5673 5671 5671 5670 5668 5666 5666 5666 5667 5668 5671 5673 5675 5676 5677 5677 5674 5674 5674 5674 5675 5676 5676 5677 5678 5679 5680 5682 5683 5685 5687 5689
5673 5673 5673 5672 5670 5670 5669 5669 5667 5666 5664 5663 5662 5661 5661 5661 5663 5665 5668 5671 5673 5675 5674 5674 5674 5673 5674 5674 5675 5675 5676 5676 5677 5678 5679 5680 5681 5683
5669 5669 5668 5666 5664 5664 5665 5665 5663 5662 5661 5659 5658 5657 5656 5656 5657 5660 5660 5663 5666 5670 5672 5673 5674 5674 5675 5674 5674 5674 5674 5674 5674 5674 5675 5675 5676 5677
5663 5663 5662 5660 5658 5656 5656 5656 5657 5658 5657 5656 5655 5654 5654 5654 5654 5653 5654 5655 5657 5663 5664 5668 5671 5673 5676 5677 5677 5675 5673 5672 5672 5671 5671 5671 5672 5672
5659 5658 5657 5656 5653 5657 5653 5650 5651 5650 5651 5654 5654 5653 5652 5652 5650 5648 5648 5650 5651 5655 5655 5659 5665 5668 5672 5675 5673 5673 5671 5670 5669 5668 5668 5667 5667 5667
5653 5654 5654 5653 5651 5651 5651 5651 5651 5650 5649 5650 5651 5652 5651 5650 5648 5647 5645 5645 5647 5648 5648 5651 5657 5660 5665 5668 5669 5668 5667 5666 5665 5664 5663 5663 5662 5662
5648 5647 5648 5648 5642 5640 5643 5645 5645 5645 5643 5642 5642 5643 5642 5643 5643 5642 5641 5640 5640 5642 5642 5644 5650 5653 5657 5662 5664 5662 5661 5661 5660 5659 5658 5657 5656 5655
5640 5640 5636 5637 5634 5633 5637 5639 5638 5640 5640 5640 5639 5639 5640 5640 5638 5639 5639 5637 5637 5638 5640 5640 5642 5643 5647 5653 5655 5655 5655 5654 5653 5653 5652 5650 5649 5648
5634 5633 5632 5628 5627 5627 5629 5632 5631 5632 5635 5635 5636 5636 5637 5637 5637 5636 5636 5635 5634 5634 5636 5635 5635 5635 5637 5640 5644 5645 5646 5648 5647 5647 5645 5643 5642 5641
5626 5626 5625 5621 5621 5621 5622 5622 5622 5624 5628 5629 5628 5629 5629 5630 5631 5631 5631 5631 5630 5630 5630 5629 5629 5628 5629 5631 5634 5636 5637 5638 5639 5640 5640 5637 5634 5633
5617 5614 5614 5614 5614 5615 5614 5615 5617 5620 5621 5621 5621 5621 5621 5622 5623 5624 5625 5624 5624 5624 5623 5623 5622 5622 5622 5623 5626 5627 5628 5629 5629 5629 5630 5630 5628 5627
5610 5607 5607 5607 5608 5607 5609 5611 5613 5613 5614 5613 5613 5614 5614 5615 5615 5616 5616 5617 5617 5617 5617 5616 5616 5615 5615 5616 5617 5618 5619 5620 5620 5619 5619 5619 5619 5619
5605 5605 5605 5604 5603 5603 5604 5605 5605 5607 5607 5607 5608 5608 5608 5609 5608 5608 5608 5609 5609 5608 5608 5608 5608 5608 5608 5608 5609 5610 5611 5611 5610 5609 5608 5608 5609 5609
5599 5598 5597 5596 5595 5596 5596 5597 5598 5599 5600 5601 5601 5601 5602 5602 5602 5601 5601 5601 5601 5601 5601 5600 5600 5601 5602 5603 5600 5602 5601 5600 5599 5598 5596 5595 5597 5599
5593 5591 5590 5589 5589 5589 5589 5590 5590 5591 5593 5594 5594 5594 5595 5595 5595 5594 5594 5594 5594 5594 5593 5592 5591 5590 5591 5592 5592 5587 5589 5588 5587 5586 5585 5584 5585 5587
5586 5585 5583 5583 5583 5583 5584 5585 5585 5586 5587 5587 5587 5587 5587 5588 5587 5587 5587 5586 5586 5585 5585 5583 5581 5579 5578 5577 5578 5578 5574 5575 5574 5574 5573 5573 5573 5572
5582 5580 5579 5579 5579 5579 5579 5580 5580 5580 5580 5581 5581 5581 5581 5581 5581 5581 5580 5577 5577 5577 5576 5574 5572 5568 5568 5567 5567 5567 5565 5561 5559 5558 5558 5559 5560 5560
5580 5578 5577 5576 5576 5576 5576 5576 5577 5576 5576 5576 5576 5576 5575 5575 5576 5575 5574 5573 5571 5570 5568 5567 5565 5563 5561 5559 5557 5556 5554 5552 5548 5544 5542 5540 5540 5543
5580 5578 5577 5575 5574 5574 5574 5574 5574 5574 5573 5572 5572 5571 5571 5571 5571 5571 5570 5569 5567 5565 5563 5561 5559 5557 5555 5551 5549 5546 5544 5542 5539 5537 5533 5527 5524 5522